Weather History for KSYN - April, 2013

Change the Weather History Date:

Tuesday, April 9, 2013

  Actual Average (KLVN) Record (KLVN)
Temperature  
Mean Temperature 38 °F -  
Max Temperature 42 °F 52 °F 78 °F (1987)
Min Temperature 34 °F 31 °F 14 °F (2007)
Degree Days  
Heating Degree Days 27    
Moisture  
Dew Point 35 °F    
Average Humidity 86    
Maximum Humidity 92    
Minimum Humidity 71    
Precipitation  
Precipitation 0.76 in - - ()
Sea Level Pressure  
Sea Level Pressure 30.00 in    
Wind  
Wind Speed 14 mph (NE)    
Max Wind Speed 23 mph    
Max Gust Speed 31 mph    
Visibility 6 miles    
Events Rain , Snow , Thunderstorm    
Averages and records for this station are not official NWS values.
T = Trace of Precipitation, MM = Missing Value Source: NWS Daily Summary

Daily Weather History Graph

Daily Weather History Graph

Search for Another Location

Airport or City:

Trip Planner

Search our weather history database for the weather conditions in past years. The results will help you decide how hot, cold, wet, or windy it might be!

Date:

Astronomy

Apr. 09, 2013 Rise Set
Actual Time 6:38 AM CDT 7:49 PM CDT
Civil Twilight 6:08 AM CDT 8:19 PM CDT
Nautical Twilight 5:32 AM CDT 8:55 PM CDT
Astronomical Twilight 4:54 AM CDT 9:33 PM CDT
Moon 6:02 AM CDT (4/9) 7:26 PM CDT (4/9)
Length of Visible Light 14h 11m
Length of Day
13h 11m
Waning Crescent, 1% of the Moon is Illuminated
Apr 9
Waning Crescent
Apr 10
New
Apr 18
First Quarter
Apr 25
Full
May 2
Last Quarter

Hourly Weather History & Observations

Time (CDT) Temp. Windchill Dew Point Humidity Pressure Visibility Wind Dir Wind Speed Gust Speed Precip Events Conditions
12:13 AM 40.3 °F 33.9 °F 38.1 °F 92% 30.00 in 5.0 mi NE 10.4 mph - N/A   Overcast
12:33 AM 40.3 °F 33.0 °F 37.9 °F 91% 30.00 in 7.0 mi NNE 12.7 mph 17.3 mph N/A   Overcast
12:53 AM 40.1 °F 33.6 °F 37.8 °F 91% 30.00 in 7.0 mi NE 10.4 mph - N/A   Overcast
1:13 AM 40.1 °F 32.7 °F 37.4 °F 90% 29.99 in 7.0 mi NNE 12.7 mph - N/A   Overcast
1:33 AM 39.9 °F 32.5 °F 37.4 °F 91% 29.97 in 5.0 mi NE 12.7 mph - N/A   Overcast
1:53 AM 39.6 °F 31.7 °F 37.4 °F 92% 29.97 in 4.0 mi NNE 13.8 mph - N/A   Overcast
2:13 AM 39.6 °F 32.5 °F 37.2 °F 91% 29.98 in 3.0 mi NNE 11.5 mph - N/A   Overcast
2:33 AM 39.2 °F 32.0 °F 37.0 °F 92% 29.96 in 3.0 mi NNE 11.5 mph - N/A   Overcast
2:53 AM 39.0 °F 31.4 °F 36.7 °F 91% 29.93 in 2.5 mi NE 12.7 mph - N/A   Overcast
3:13 AM 38.8 °F 32.1 °F 36.7 °F 92% 29.96 in 4.0 mi NNE 10.4 mph - N/A   Overcast
3:33 AM 39.0 °F 34.0 °F 36.9 °F 92% 30.00 in 5.0 mi NE 6.9 mph - N/A   Overcast
3:53 AM 38.8 °F 32.1 °F 36.7 °F 92% 29.99 in 4.0 mi NNE 10.4 mph - N/A   Overcast
4:13 AM 38.7 °F 31.8 °F 36.5 °F 92% 29.99 in 5.0 mi NE 10.4 mph - N/A   Overcast
4:33 AM 38.5 °F 30.3 °F 36.1 °F 91% 29.97 in 5.0 mi NNE 13.8 mph - N/A   Overcast
4:53 AM 38.5 °F 31.6 °F 36.1 °F 91% 29.99 in 5.0 mi NNE 10.4 mph - N/A   Overcast
5:13 AM 38.3 °F 29.7 °F 35.8 °F 91% 29.98 in 5.0 mi NNE 15.0 mph - N/A   Overcast
5:33 AM 37.9 °F 30.0 °F 35.6 °F 91% 29.97 in 5.0 mi NE 12.7 mph - N/A   Overcast
5:53 AM 37.9 °F 29.6 °F 35.6 °F 91% 29.97 in 5.0 mi NNE 13.8 mph - N/A Rain Light Rain
6:13 AM 37.9 °F 28.5 °F 35.4 °F 91% 29.98 in 7.0 mi NNE 17.3 mph 21.9 mph N/A   Overcast
6:33 AM 37.8 °F 28.0 °F 35.2 °F 91% 29.98 in 7.0 mi NNE 18.4 mph 23.0 mph N/A   Overcast
6:53 AM 37.6 °F 29.1 °F 35.1 °F 91% 29.99 in 5.0 mi NNE 13.8 mph 21.9 mph 0.01 in Rain Light Rain
7:13 AM 37.6 °F 28.8 °F 35.2 °F 91% 29.98 in 4.0 mi NE 15.0 mph 19.6 mph 0.01 in Rain Light Rain
7:33 AM 37.6 °F 28.1 °F 35.2 °F 91% 29.99 in 4.0 mi NNE 17.3 mph 24.2 mph 0.02 in Rain Light Rain
7:53 AM 37.6 °F 28.4 °F 35.2 °F 91% 29.98 in 5.0 mi NNE 16.1 mph 20.7 mph 0.03 in Rain Light Rain
8:13 AM 37.6 °F 28.8 °F 35.2 °F 91% 29.96 in 5.0 mi NNE 15.0 mph 21.9 mph 0.01 in   Drizzle
8:33 AM 37.6 °F 28.1 °F 35.2 °F 91% 29.97 in 5.0 mi NNE 17.3 mph - 0.01 in Rain Light Rain
8:53 AM 37.4 °F 27.8 °F 34.9 °F 91% 29.97 in 5.0 mi NNE 17.3 mph 23.0 mph 0.02 in Rain Light Rain
9:13 AM 37.2 °F 26.7 °F 34.7 °F 91% 29.96 in 2.5 mi NNE 20.7 mph - 0.03 in Rain Light Rain
9:33 AM 37.0 °F 27.0 °F 34.7 °F 91% 29.97 in 2.5 mi NNE 18.4 mph 23.0 mph 0.08 in   Overcast
9:52 AM 37.0 °F 27.0 °F 34.3 °F 90% 29.97 in 2.5 mi NNE 18.4 mph - 0.12 in Snow Light Snow
10:13 AM 37.0 °F 28.5 °F 34.3 °F 90% 30.00 in 2.5 mi NNE 13.8 mph - 0.03 in Rain , Thunderstorm Light Thunderstorms and Rain
10:33 AM 36.9 °F 28.2 °F 34.2 °F 90% 30.01 in 1.8 mi NNE 13.8 mph - 0.09 in   Overcast
10:52 AM 36.9 °F 26.2 °F 34.3 °F 91% 29.97 in 1.5 mi NNE 20.7 mph - 0.20 in Snow Light Snow
11:13 AM 36.9 °F 26.5 °F 34.7 °F 92% 29.99 in 2.5 mi NNE 19.6 mph 25.3 mph 0.03 in Snow Light Snow
11:33 AM 37.4 °F 28.2 °F 34.7 °F 90% 30.01 in 4.0 mi NNE 16.1 mph 21.9 mph 0.06 in Rain Rain
11:53 AM 37.4 °F 27.8 °F 34.7 °F 90% 30.02 in 3.0 mi NNE 17.3 mph 21.9 mph 0.09 in Rain Light Rain
12:13 PM 37.6 °F 27.4 °F 35.1 °F 91% 30.01 in 4.0 mi NNE 19.6 mph 25.3 mph 0.02 in Rain Rain
12:33 PM 37.9 °F 27.6 °F 35.2 °F 90% 30.01 in 7.0 mi NNE 20.7 mph - 0.04 in Rain Light Rain
12:53 PM 38.3 °F 27.8 °F 35.6 °F 90% 30.00 in 10.0 mi NNE 21.9 mph 26.5 mph 0.05 in Rain Light Rain
1:12 PM 38.7 °F 28.8 °F 35.8 °F 89% 30.00 in 10.0 mi NNE 19.6 mph 25.3 mph N/A   Light Drizzle
1:33 PM 39.2 °F 28.7 °F 35.8 °F 88% 30.00 in 10.0 mi NNE 23.0 mph 26.5 mph N/A   Overcast
1:53 PM 39.6 °F 29.5 °F 36.0 °F 87% 29.98 in 10.0 mi NNE 21.9 mph 27.6 mph N/A   Overcast
2:13 PM 39.6 °F 30.6 °F 35.6 °F 86% 29.99 in 10.0 mi NE 17.3 mph 24.2 mph N/A   Overcast
2:32 PM 39.9 °F 31.1 °F 35.4 °F 84% 30.00 in 10.0 mi NE 17.3 mph 26.5 mph N/A   Overcast
2:53 PM 40.5 °F 30.7 °F 35.2 °F 82% 29.99 in 10.0 mi NE 21.9 mph 28.8 mph N/A   Overcast
3:13 PM 41.0 °F 32.2 °F 35.4 °F 81% 29.99 in 10.0 mi NE 18.4 mph 27.6 mph N/A   Overcast
3:33 PM 41.4 °F 32.1 °F 34.9 °F 78% 30.00 in 10.0 mi NE 20.7 mph 28.8 mph N/A   Overcast
3:53 PM 41.7 °F 32.6 °F 34.9 °F 77% 29.99 in 10.0 mi NE 20.7 mph 27.6 mph N/A   Overcast
4:13 PM 41.4 °F 33.0 °F 34.9 °F 78% 30.00 in 10.0 mi NE 17.3 mph 21.9 mph N/A   Overcast
4:33 PM 41.5 °F 33.5 °F 34.7 °F 77% 30.00 in 10.0 mi NE 16.1 mph 24.2 mph N/A   Overcast
4:53 PM 42.1 °F 34.9 °F 34.7 °F 75% 30.01 in 10.0 mi NE 13.8 mph 23.0 mph N/A   Overcast
5:13 PM 41.5 °F 33.8 °F 33.6 °F 73% 30.03 in 10.0 mi NNE 15.0 mph 21.9 mph N/A   Overcast
5:33 PM 41.4 °F 33.6 °F 33.4 °F 73% 30.04 in 10.0 mi NE 15.0 mph 19.6 mph N/A   Overcast
5:53 PM 41.0 °F 32.5 °F 32.4 °F 71% 30.03 in 10.0 mi NNE 17.3 mph 23.0 mph N/A   Overcast
6:13 PM 40.8 °F 32.9 °F 32.5 °F 72% 30.03 in 10.0 mi NE 15.0 mph - N/A   Overcast
6:33 PM 40.5 °F 32.8 °F 32.0 °F 72% 30.05 in 10.0 mi NE 13.8 mph 19.6 mph N/A   Overcast
6:53 PM 40.5 °F 32.1 °F 31.8 °F 71% 30.04 in 10.0 mi NE 16.1 mph 21.9 mph N/A   Overcast
7:13 PM 40.1 °F 31.0 °F 32.0 °F 73% 30.02 in 10.0 mi NE 18.4 mph 27.6 mph N/A   Overcast
7:33 PM 39.7 °F 30.3 °F 31.8 °F 73% 30.00 in 10.0 mi NE 19.6 mph 26.5 mph N/A   Overcast
7:53 PM 39.7 °F 30.6 °F 31.1 °F 71% 30.00 in 10.0 mi NE 18.4 mph 26.5 mph N/A   Mostly Cloudy
8:13 PM 39.2 °F 29.8 °F 31.1 °F 73% 29.98 in 10.0 mi NE 18.4 mph 31.1 mph N/A   Light Drizzle
8:33 PM 38.3 °F 27.8 °F 31.8 °F 77% 29.97 in 10.0 mi NNE 21.9 mph 31.1 mph N/A Rain Light Rain
8:52 PM 37.9 °F 28.9 °F 30.9 °F 76% 30.01 in 10.0 mi NE 16.1 mph 23.0 mph N/A Rain , Thunderstorm Light Thunderstorms and Rain
9:13 PM 37.6 °F 28.8 °F 30.2 °F 75% 30.01 in 10.0 mi NE 15.0 mph 21.9 mph 0.01 in Rain , Thunderstorm Light Thunderstorms and Rain
9:53 PM 36.5 °F 29.7 °F 30.7 °F 80% 30.04 in 5.0 mi NE 9.2 mph - 0.07 in Rain Rain
10:13 PM 36.1 °F 29.9 °F 30.7 °F 81% 30.06 in 5.0 mi NE 8.1 mph - 0.03 in Rain Rain
10:33 PM 35.6 °F 29.2 °F 31.5 °F 85% 30.07 in 5.0 mi NNE 8.1 mph - 0.07 in Rain , Thunderstorm Thunderstorms and Rain
10:53 PM 35.2 °F 28.1 °F 31.1 °F 85% 30.10 in 3.0 mi North 9.2 mph - 0.12 in Thunderstorm Overcast
11:13 PM 34.7 °F 26.4 °F 31.1 °F 87% 30.08 in 4.0 mi NNE 11.5 mph - 0.03 in Snow Light Snow
11:33 PM 34.2 °F 24.8 °F 31.1 °F 89% 30.08 in 4.0 mi North 13.8 mph - 0.05 in Snow , Thunderstorm Light Thunderstorms and Snow
11:53 PM 34.0 °F 24.2 °F 30.6 °F 87% 30.08 in 5.0 mi NNE 15.0 mph - 0.05 in Snow Light Snow